星链-37544(STARLINK-37544)

导读

STARLINK-37544(NORAD编号68909)是美国SpaceX公司星链(Starlink)星座的一员,属于低轨互联网卫星。星链计划旨在近地轨道部署超4万颗卫星,为全球提供高速低延迟互联网服务,该卫星承担补充星座网络容量、完善全球覆盖的任务。它运行于近地轨道,依托星链规模化部署优势,配合星座整体架构提供宽带接入服务,服务偏远地区、移动场景等地面网络覆盖不足区域,延续了星链低成本批量生产、可主动避撞的技术特点,是星链星座持续扩容过程中的部署单元,支撑星链全球互联网服务网络的运营。

Basic Information
目录编号:
68909
目录名称:
STARLINK-37544
国际标识:
2026-097Q
轨道中心:
EARTH
卫星名称:
星链-37544
卫星全名:
星链-37544(STARLINK-37544)
卫星状态:
在轨 (已飞行127 天)
发射日期:
2026-04-30 UTC
国别 :
美国 (US)
星等 :
--
Orbit Information
数据来源 国际轨道数据 AOE轨道数据
星历时间 2026-09-03T10:32:37+0800
1天前
查看轨道信息
2026-08-31T22:00:00+0800
3天前
查看轨道信息
半长轴 6843.698km 6843.802km
偏心率 0.0001437 0.0002111
轨道倾角 97.285° 97.287°
近地点辐角 92.243° 80.817°
升交点赤经 80.456° 77.970°
平近点角 267.897° 42.352°
近地点 464.577km 464.22km
远地点 466.545km 467.11km
周期 93.907分钟 93.909分钟
每日圈数 15.334392 15.334041
Detailed Information
固有亮度:
5
最大亮度:
2.5
卫星平台:
Starlink V1.0
覆盖范围:
全球
运营商:
太空探索技术公司
运营商所在国:
美国
制造商(研发单位):
太空探索技术公司
制造商所在国:
美国
使用方式:
暂无
Satellite Introduction
Starlink 计划是 SpaceX 推出的全球卫星互联网项目,通过发射低轨道卫星,为全球尤其是偏远地区提供高速、低延迟的互联网服务。自 2019 年起,Starlink 已部署数千颗卫星,旨在缩小全球数字鸿沟,推动互联网普及。该项目还为军事、航空等行业提供通信支持,带来广泛经济效益。
2D Orbit Map
3D Orbit Map
Orbit Altitude Analysis Chart
Orbit Inclination Analysis Chart
Orbit Comprehensive Analysis Chart
View Comprehensive Chart
Conjunction Data List
Event ID Objects TCA Miss Dist (km) Collision Risk Probability Collision Risk Index (CRI) Action
CDM_260903-191306-168006-890922
2026-09-03T
19:13:13+0000
2.811 km
极远距离
1.276379E-6 低风险 0.37
CDM_260828-012605-019306-890921
2026-08-28T
01:26:30+0000
2.983 km
极远距离
1.218169E-6 低风险 0.37